EW0538 Weather Reports


Display with metric or nautical units.
time (UTC)temp
F
wind
direction
speed
MPH
gust
MPH
rain 1hr
in
rain 24hr
in
rain mn
in
humidity
%
barometer
mb
20260505054414 45 71 0.0 0.0 0.06 0.42 0.42 95 1007.9
20260505053434 45 71 0.0 0.0 0.08 0.40 0.40 95 1008.4
20260505052452 45 127 0.0 0.0 0.04 0.39 0.40 95 1008.5
20260505041151 45 127 0.0 0.0 0.00 0.35 0.35 94 1008.3
20260505034946 46 112 0.0 3.0 0.06 0.35 0.35 93 1008.1
20260505033946 46 120 0.0 0.0 0.28 0.32 0.34 92 1007.8
20260505032944 46 252 0.0 0.0 0.16 0.29 0.30 91 1007.8
20260505031936 46 252 0.0 0.0 0.17 0.26 0.27 91 1007.7
20260505030928 47 355 0.0 1.0 0.00 0.24 0.24 90 1007.5
20260505025928 47 281 0.0 4.0 0.05 0.23 0.23 89 1007.3
20260505023816 48 243 1.0 6.0 0.20 0.21 0.21 87 1006.2
20260505022827 48 296 1.0 0.0 0.23 0.18 0.18 89 1005.8
20260505021802 49 36 1.0 4.0 0.00 0.13 0.13 89 1005.3
20260505014522 51 340 0.0 0.0 0.00 0.09 0.09 76 1004.0
20260505013515 51 286 0.0 4.0 0.00 0.09 0.09 79 1004.1
20260505011433 51 297 1.0 6.0 0.00 0.09 0.09 82 1003.6
20260505010400 51 335 2.0 8.0 0.00 0.09 0.09 84 1003.4
20260505005348 51 302 2.0 8.0 0.00 0.09 0.09 85 1003.2
20260505004338 52 347 0.0 0.0 0.00 0.09 0.09 85 1003.0
20260505002301 52 18 0.0 1.0 0.00 0.09 0.09 82 1003.2
20260505000240 50 158 0.0 3.0 0.06 0.09 0.09 87 1003.7
20260504235244 51 328 0.0 0.0 0.08 0.08 0.08 86 1003.8
20260504234225 52 323 0.0 0.0 0.25 0.06 0.06 80 1003.9
20260504233230 53 8 0.0 2.0 0.00 0.04 0.05 76 1003.8
20260504232216 55 63 0.0 4.0 0.00 0.04 0.04 72 1003.6
20260504231218 56 335 1.0 6.0 0.00 0.04 0.04 66 1003.6
20260504230145 57 248 0.0 6.0 0.00 0.04 0.04 65 1003.3
20260504225203 57 114 0.0 0.0 0.00 0.04 0.04 62 1003.1
20260504224156 57 245 0.0 2.0 0.00 0.04 0.04 65 1003.3
20260504222054 55 128 0.0 5.0 0.00 0.04 0.04 71 1003.4
20260504221110 54 143 1.0 5.0 0.00 0.04 0.04 74 1003.5
20260504215000 55 124 1.0 0.0 0.00 0.04 0.04 71 1003.9
20260504213943 56 134 0.0 8.0 0.00 0.03 0.03 64 1004.2
20260504212917 55 253 1.0 8.0 0.00 0.03 0.03 67 1004.3
20260504210722 54 156 1.0 5.0 0.00 0.03 0.03 73 1004.9
20260504205719 54 128 0.0 1.0 0.00 0.03 0.03 75 1004.7
20260504204659 53 240 0.0 2.0 0.00 0.03 0.03 74 1004.7
20260504203701 52 105 0.0 0.0 0.00 0.03 0.03 77 1004.7
20260504202706 52 117 0.0 0.0 0.00 0.03 0.03 77 1004.9
20260504201644 53 263 2.0 9.0 0.00 0.02 0.02 73 1005.5
20260504200616 54 348 4.0 9.0 0.00 0.02 0.02 73 1005.0
20260504194425 58 0 0.0 0.0 0.00 0.02 0.02 64 1004.6
20260504193423 58 340 0.0 0.0 0.00 0.01 0.01 52 1004.5
20260504192414 60 127 1.0 7.0 0.00 0.01 0.01 52 1004.4
20260504191427 60 119 2.0 10.0 0.00 0.01 0.01 55 1004.7
20260504185307 57 169 1.0 7.0 0.00 0.01 0.01 58 1005.6
20260504184235 58 43 1.0 8.0 0.00 0.01 0.01 59 1005.4
20260504183236 56 99 2.0 8.0 0.00 0.01 0.01 58 1005.3
20260504182243 57 345 0.0 4.0 0.00 0.01 0.01 59 1005.3
20260504181241 58 91 1.0 4.0 0.00 0.01 0.01 65 1005.3
20260504180240 57 150 0.0 3.0 0.00 0.01 0.01 68 1005.5
20260504175242 54 146 0.0 7.0 0.00 0.01 0.01 72 1005.7
20260504174259 53 153 2.0 7.0 0.00 0.01 0.01 71 1006.0
20260504173246 53 156 0.0 3.0 0.00 0.01 0.01 73 1006.0
20260504171214 57 212 1.0 9.0 0.00 0.00 0.00 56 1006.4
20260504150502 49 340 0.0 3.0 0.00 0.00 0.00 73 1008.4
20260504141330 46 342 0.0 3.0 0.00 0.00 0.00 77 1008.9
20260504140349 46 345 0.0 3.0 0.00 0.00 0.00 77 1009.0
20260504081109 38 10 0.0 0.0 0.00 0.00 0.00 73 1007.6
20260504080128 38 314 0.0 0.0 0.00 0.00 0.00 75 1007.5
20260504070120 37 155 0.0 0.0 0.00 0.00 0.00 80 1007.6